Wind_Speed
41 41 41 40 39 39 39 39 39 39 39 40 40 40 40 40 39 38 37 36 36 36 37 37 37 38 39 40 41 41 41 40 40 40 40 40 40 40 40 40 40 39
38 38 38 38 38 38 39 39 40 40 40 41 41 41 41 41 42 42 42 41 40 39 39 39 38 39 40 41 41 42 42 42 41 42 42 42 42 42 41 40 40 38
37 38 38 37 37 38 40 41 41 42 42 42 42 42 43 43 43 42 42 42 41 41 40 39 38 38 39 40 41 42 42 43 43 43 43 43 43 43 42 40 39 37
38 38 38 37 38 39 41 43 43 44 44 44 43 43 43 43 42 41 41 41 41 42 41 40 39 38 39 39 40 41 42 43 44 44 44 44 44 44 42 41 39 37
39 39 38 38 39 41 43 44 45 46 46 45 44 42 40 40 40 41 41 40 41 42 43 42 42 41 41 42 42 43 43 44 45 46 45 44 43 43 42 41 40 38
38 39 38 38 39 42 44 46 47 48 48 46 45 43 41 39 40 41 42 42 42 43 44 44 43 43 42 43 44 45 45 46 47 47 47 45 44 43 43 41 40 37
38 38 37 38 39 41 45 48 50 51 50 49 48 48 46 43 42 43 44 44 43 43 44 45 45 44 43 43 43 45 46 46 47 48 47 46 45 45 44 42 40 37
39 39 38 38 39 41 43 46 49 52 53 53 52 51 50 47 45 44 45 46 45 44 45 45 45 45 44 43 43 43 44 44 45 46 46 45 44 44 44 41 39 37
40 41 40 39 40 41 42 43 45 47 49 50 50 50 49 47 45 44 44 45 45 44 44 44 44 44 43 42 41 40 41 41 41 42 43 42 42 42 41 39 38 36
42 42 42 41 40 40 41 42 44 45 46 47 48 47 45 43 42 41 41 42 42 42 42 41 41 40 40 39 39 38 37 37 37 37 38 38 38 38 38 37 36 35
41 41 41 41 40 39 39 40 41 43 43 44 43 41 40 40 39 39 38 38 38 38 38 37 37 37 36 36 36 36 35 35 35 34 34 34 34 35 35 35 35 35
40 39 39 38 38 37 37 37 37 37 37 37 36 36 35 35 35 35 34 34 34 34 34 34 33 33 34 34 34 34 34 34 35 35 35 36 36 36 36 36 36 37
38 38 37 37 36 36 35 35 35 34 33 32 31 31 30 30 31 31 32 32 32 32 32 33 32 32 32 33 33 33 34 34 35 36 37 38 38 39 39 39 40 39
37 36 36 35 35 35 34 34 34 33 32 32 31 31 31 31 31 32 32 33 33 33 34 34 34 34 34 34 34 34 34 34 35 36 36 37 38 39 40 40 40 41
36 36 36 36 36 35 35 35 35 34 34 34 34 35 35 35 34 34 34 34 35 35 35 36 36 36 36 36 36 36 36 36 36 36 36 36 37 38 38 39 39 40
37 37 37 38 38 37 37 36 36 36 36 36 36 37 37 37 36 36 36 36 36 37 37 38 38 38 39 39 39 39 39 39 39 38 38 38 38 38 39 39 40 40
39 39 39 40 40 39 38 37 37 37 37 37 38 38 38 38 38 38 38 38 38 39 39 40 40 40 40 41 41 41 41 41 41 40 40 40 40 40 40 41 41 42
41 41 41 42 42 41 41 40 40 40 40 40 40 40 40 41 41 41 41 40 40 40 41 41 42 43 43 43 43 43 43 44 44 43 43 43 43 42 42 43 43 44
42 43 43 44 44 44 44 44 44 43 43 43 43 42 42 42 43 43 43 43 42 42 42 42 43 44 44 45 45 45 45 46 46 45 45 45 45 45 44 45 45 45
44 44 44 44 45 45 45 46 46 46 46 45 45 44 44 44 44 44 43 43 43 43 43 43 43 44 44 45 45 46 46 47 47 46 46 46 46 45 45 45 45 46
45 45 45 45 45 46 46 47 47 47 47 47 47 46 45 45 45 44 44 44 43 43 43 43 43 44 44 44 45 45 46 46 46 46 46 46 46 45 45 44 45 45
45 45 46 47 47 48 48 48 48 48 48 48 48 47 46 46 45 45 45 44 43 43 43 43 43 44 44 44 45 45 46 46 46 46 46 46 46 46 45 45 45 45
46 47 48 48 49 50 50 49 49 48 48 48 48 48 47 46 46 46 45 44 44 44 44 44 43 44 45 45 45 45 46 47 46 46 46 47 47 47 46 46 46 46
47 47 48 49 49 50 50 50 49 49 48 48 48 49 48 47 46 46 45 45 45 44 44 45 44 43 44 46 46 46 47 47 47 47 47 46 47 47 47 46 46 46
47 48 48 49 49 50 50 50 49 48 48 47 47 48 48 48 47 46 46 45 45 45 45 45 45 44 44 46 47 47 47 48 48 47 47 46 46 47 47 46 46 45
47 47 48 48 48 49 49 49 49 48 47 47 47 47 48 48 48 48 47 46 46 45 45 45 45 45 44 45 47 47 48 48 48 48 47 47 47 47 47 46 45 45
Wind_Direction
296 296 296 296 293 291 289 287 286 285 284 285 285 286 285 284 282 280 279 278 278 279 279 281 281 280 279 278 278 278 278 277 278 279 280 281 281 281 279 277 275 273
297 297 296 293 290 287 285 283 282 281 281 282 283 284 284 283 282 281 279 277 277 279 280 281 281 281 281 280 280 280 280 280 280 281 281 280 280 279 278 276 274 271
298 297 294 290 286 282 280 279 278 279 279 280 280 281 282 283 284 284 282 281 281 280 279 279 280 280 281 281 282 282 282 282 281 281 280 279 278 277 274 273 270 266
297 295 291 287 281 277 275 275 276 277 278 278 278 279 281 283 285 287 287 286 285 281 278 277 278 278 279 280 281 282 283 283 282 281 280 279 278 276 272 270 266 261
295 292 288 283 278 274 272 273 274 276 276 276 277 279 282 286 287 288 288 287 285 281 278 276 277 277 278 279 279 280 280 281 282 282 281 278 276 273 270 267 263 258
294 292 287 283 279 275 274 274 274 274 275 276 279 283 287 290 290 288 287 286 285 283 279 276 277 278 279 280 280 279 279 279 279 279 278 276 274 271 267 264 260 256
296 295 291 287 284 280 277 276 275 274 276 279 284 288 292 295 294 291 287 285 283 281 279 276 276 277 279 280 280 280 279 278 278 277 275 273 271 267 264 261 257 254
297 296 293 289 286 283 281 279 279 279 280 283 286 289 292 295 296 293 289 285 282 279 276 275 275 276 277 279 279 279 279 279 278 275 273 270 267 264 260 256 252 250
297 295 292 289 287 284 283 283 284 285 286 287 289 291 293 294 295 293 289 286 283 280 277 275 275 276 278 280 281 282 281 280 278 276 274 270 266 262 258 254 250 247
296 296 296 295 293 290 288 287 288 289 290 291 292 293 294 295 294 293 290 287 285 284 282 280 279 279 280 281 283 283 282 281 279 276 274 270 265 260 256 253 250 247
298 299 300 301 301 299 296 294 292 292 292 293 294 294 294 294 294 293 291 290 289 288 287 285 284 284 283 283 284 284 283 281 279 277 273 270 265 261 257 254 252 250
302 303 303 303 303 302 301 299 297 296 296 295 294 294 293 294 294 294 294 293 293 293 292 291 289 287 286 284 283 283 282 282 280 278 275 272 269 266 263 260 258 256
304 304 304 303 303 302 301 300 299 297 297 296 295 294 294 295 296 297 298 298 297 297 296 295 294 292 289 287 285 283 282 281 280 278 276 274 272 270 268 266 265 263
304 304 303 303 302 301 300 299 298 297 296 296 296 297 297 297 297 298 298 298 298 297 296 296 295 293 292 290 289 287 285 283 282 280 278 276 274 273 271 270 269 267
304 304 304 304 303 302 302 301 300 300 299 298 298 298 298 297 296 296 295 294 294 293 293 293 292 291 291 289 289 288 287 285 284 282 281 279 277 276 275 274 273 272
305 306 306 306 306 305 305 304 303 302 301 300 300 299 298 297 296 295 293 292 291 290 290 290 289 289 288 288 287 286 285 284 283 283 281 280 279 278 277 276 275 274
307 308 308 308 308 307 307 306 304 303 302 301 300 299 298 297 296 295 293 292 290 289 289 288 288 288 287 286 285 284 283 282 282 281 280 279 278 277 276 276 275 275
307 307 308 307 307 307 306 305 304 302 301 300 298 297 297 296 295 294 293 292 290 289 288 287 287 286 286 285 284 283 282 281 281 280 279 279 278 276 276 275 275 275
305 305 306 306 306 306 305 305 304 302 301 300 299 297 297 296 295 294 293 292 291 290 288 287 286 285 284 284 284 284 283 283 282 281 280 279 279 278 277 276 275 275
303 303 304 304 304 304 303 303 302 301 301 300 299 299 298 297 296 295 294 293 292 291 290 289 287 286 285 284 284 284 284 283 283 283 282 281 280 279 278 277 277 276
302 302 302 302 302 301 301 301 300 300 300 300 299 299 298 297 296 295 294 293 293 292 291 290 288 287 286 285 284 284 283 283 283 282 282 281 280 280 279 278 277 276
303 303 302 302 301 300 299 299 299 299 299 299 299 298 297 297 296 295 294 294 293 292 291 290 288 287 286 285 284 284 283 282 282 282 281 281 280 279 279 278 277 276
303 302 302 301 300 299 299 298 298 298 298 298 297 297 296 296 295 294 294 294 293 292 291 290 289 288 287 286 285 284 283 283 282 282 281 281 280 280 279 278 277 277
301 300 300 299 299 298 298 298 297 297 297 297 296 296 295 295 295 294 294 294 293 292 291 290 289 288 288 287 286 285 284 284 283 282 282 282 281 280 279 278 276 276
299 299 298 298 297 297 297 297 297 297 297 297 297 296 296 296 295 295 294 294 293 292 291 290 289 289 288 287 286 286 285 285 284 284 283 283 282 281 280 279 278 276
298 298 298 298 298 297 297 297 297 298 298 298 297 296 296 296 295 295 294 293 293 292 291 290 289 288 287 286 286 286 285 285 285 285 284 283 282 281 281 280 280 278
Height
2995 2993 2991 2990 2988 2987 2985 2984 2983 2981 2980 2979 2978 2977 2976 2975 2974 2973 2973 2971 2971 2969 2969 2968 2967 2966 2965 2964 2964 2963 2961 2960 2959 2959 2958 2958 2958 2958 2958 2958 2958 2958
2990 2988 2987 2985 2984 2982 2981 2980 2979 2977 2976 2975 2974 2972 2972 2971 2970 2969 2968 2967 2966 2965 2963 2962 2961 2960 2960 2959 2958 2958 2956 2955 2954 2954 2953 2953 2952 2952 2952 2952 2952 2952
2986 2984 2982 2981 2979 2978 2977 2975 2974 2972 2971 2970 2969 2968 2967 2966 2965 2964 2963 2962 2961 2959 2958 2957 2956 2955 2954 2953 2953 2952 2951 2950 2949 2949 2948 2948 2947 2947 2946 2947 2947 2946
2981 2979 2977 2976 2974 2973 2972 2970 2969 2968 2967 2965 2964 2963 2962 2961 2960 2959 2958 2957 2955 2954 2953 2951 2950 2949 2948 2947 2947 2946 2945 2945 2944 2944 2943 2943 2942 2942 2941 2941 2941 2941
2976 2974 2972 2971 2969 2968 2967 2965 2964 2963 2961 2960 2958 2957 2956 2955 2955 2954 2952 2951 2950 2949 2947 2946 2945 2943 2942 2941 2941 2940 2939 2939 2939 2938 2938 2937 2937 2936 2936 2936 2936 2936
2971 2969 2968 2966 2965 2964 2962 2961 2960 2958 2956 2955 2953 2952 2951 2950 2949 2948 2947 2946 2945 2943 2942 2941 2939 2938 2936 2935 2935 2934 2934 2934 2933 2933 2932 2932 2931 2930 2930 2930 2930 2931
2967 2965 2964 2962 2961 2960 2958 2957 2955 2953 2951 2950 2948 2947 2946 2945 2944 2942 2941 2940 2939 2938 2936 2935 2934 2932 2931 2930 2929 2928 2928 2928 2927 2927 2927 2926 2925 2925 2924 2924 2925 2925
2962 2960 2959 2957 2956 2955 2953 2951 2950 2948 2946 2944 2943 2942 2940 2939 2938 2937 2935 2934 2933 2932 2930 2930 2928 2927 2926 2925 2924 2923 2922 2922 2921 2921 2921 2920 2920 2919 2919 2919 2919 2919
2957 2956 2954 2952 2951 2949 2947 2946 2944 2942 2941 2939 2938 2937 2935 2934 2932 2931 2930 2928 2927 2925 2924 2924 2922 2921 2920 2919 2918 2917 2917 2916 2915 2915 2915 2915 2915 2914 2914 2914 2914 2914
2952 2950 2949 2947 2945 2943 2942 2940 2939 2937 2936 2934 2932 2931 2929 2928 2926 2925 2923 2922 2921 2920 2919 2918 2916 2915 2914 2913 2913 2912 2912 2911 2911 2910 2910 2910 2910 2910 2910 2910 2910 2910
2947 2945 2943 2941 2940 2938 2936 2935 2933 2932 2930 2928 2927 2925 2924 2922 2921 2919 2918 2917 2916 2915 2914 2913 2912 2911 2909 2909 2908 2907 2907 2907 2907 2906 2906 2906 2906 2906 2906 2906 2906 2906
2942 2940 2938 2936 2934 2933 2931 2929 2928 2926 2925 2923 2922 2920 2919 2918 2916 2915 2914 2913 2912 2911 2910 2909 2908 2907 2906 2905 2904 2903 2903 2903 2902 2902 2902 2902 2902 2902 2902 2902 2902 2902
2937 2935 2933 2931 2930 2928 2926 2924 2923 2921 2920 2919 2917 2916 2915 2914 2912 2911 2910 2909 2908 2907 2906 2905 2904 2903 2902 2901 2901 2900 2899 2899 2899 2898 2898 2898 2898 2898 2898 2898 2897 2897
2932 2930 2928 2927 2925 2923 2922 2920 2919 2917 2916 2915 2913 2912 2911 2910 2908 2907 2906 2905 2904 2903 2902 2901 2900 2899 2898 2897 2897 2896 2895 2895 2894 2894 2894 2893 2893 2893 2893 2893 2892 2892
2927 2925 2923 2922 2920 2918 2917 2915 2914 2913 2912 2910 2909 2908 2906 2905 2904 2903 2901 2900 2899 2898 2897 2896 2895 2894 2893 2892 2891 2891 2890 2890 2890 2889 2889 2889 2888 2888 2888 2887 2887 2886
2922 2920 2918 2916 2914 2913 2912 2910 2909 2908 2906 2905 2904 2903 2901 2900 2899 2897 2896 2895 2894 2893 2892 2890 2889 2888 2887 2886 2885 2885 2885 2884 2884 2884 2883 2883 2883 2883 2882 2882 2881 2881
2916 2914 2913 2911 2909 2908 2906 2905 2903 2902 2901 2899 2898 2897 2896 2894 2893 2892 2891 2890 2889 2888 2886 2885 2884 2883 2882 2881 2880 2879 2878 2878 2878 2878 2877 2877 2877 2877 2876 2875 2875 2874
2911 2909 2908 2906 2904 2902 2901 2899 2898 2896 2895 2894 2893 2891 2890 2889 2887 2886 2885 2884 2883 2882 2880 2879 2878 2877 2876 2875 2874 2873 2872 2871 2871 2871 2871 2871 2870 2870 2870 2869 2868 2867
2907 2905 2903 2900 2898 2896 2895 2893 2892 2890 2889 2888 2886 2885 2884 2883 2881 2880 2879 2877 2876 2875 2874 2872 2871 2870 2869 2868 2866 2865 2864 2864 2863 2863 2863 2863 2862 2862 2862 2861 2861 2860
2902 2900 2898 2895 2893 2891 2889 2888 2886 2884 2883 2881 2880 2879 2878 2876 2874 2873 2872 2870 2869 2868 2867 2865 2864 2862 2861 2860 2859 2858 2857 2856 2856 2856 2855 2855 2855 2854 2854 2854 2853 2852
2896 2894 2892 2890 2888 2886 2884 2883 2881 2879 2877 2875 2874 2872 2871 2869 2868 2866 2865 2864 2862 2861 2860 2859 2857 2855 2854 2853 2852 2851 2850 2849 2849 2848 2848 2847 2847 2847 2847 2846 2846 2845
2890 2888 2886 2884 2882 2880 2879 2877 2875 2873 2871 2869 2867 2866 2865 2863 2861 2860 2858 2857 2856 2855 2853 2852 2851 2849 2848 2847 2846 2845 2843 2842 2842 2842 2841 2840 2840 2840 2840 2839 2839 2838
2885 2883 2880 2878 2876 2874 2872 2871 2869 2867 2865 2863 2861 2859 2858 2857 2855 2853 2852 2851 2850 2848 2847 2845 2845 2843 2841 2840 2839 2838 2836 2835 2835 2835 2834 2833 2833 2832 2832 2832 2832 2831
2881 2878 2876 2874 2871 2868 2866 2864 2862 2861 2859 2857 2855 2853 2851 2850 2849 2847 2846 2844 2843 2842 2840 2839 2838 2837 2835 2833 2832 2831 2829 2828 2827 2827 2827 2826 2825 2824 2824 2824 2824 2824
2876 2874 2871 2868 2866 2863 2860 2858 2856 2854 2853 2851 2849 2846 2844 2843 2841 2840 2839 2838 2837 2835 2833 2832 2831 2831 2829 2826 2825 2823 2822 2820 2820 2819 2819 2819 2818 2817 2816 2816 2816 2816
2871 2868 2865 2863 2860 2857 2854 2852 2850 2848 2846 2844 2842 2840 2838 2836 2834 2833 2832 2831 2830 2828 2827 2825 2824 2823 2822 2820 2818 2816 2814 2813 2812 2812 2811 2811 2810 2808 2808 2808 2808 2808